This is the latest recevied weather packets stored in our database for station/object ER1XDX-15. If no packets are shown the sender has not sent any weather packets the latest 10 day(s).
| Time | Temp. | Humidity | Pressure | Rain* | Wind** | Luminosity | Snow |
|---|---|---|---|---|---|---|---|
| 1777898102 | 23.33° C | 26% | 1004.6 hPa | - | - | - | - |
| 1777897202 | 22.78° C | 24% | 1004.6 hPa | - | - | - | - |
| 1777896302 | 22.78° C | 24% | 1004.8 hPa | - | - | - | - |
| 1777895401 | 22.22° C | 23% | 1004.8 hPa | - | - | - | - |
| 1777894501 | 22.22° C | 23% | 1005 hPa | - | - | - | - |
| 1777893601 | 22.22° C | 24% | 1005.2 hPa | - | - | - | - |
| 1777892701 | 22.22° C | 23% | 1005.4 hPa | - | - | - | - |
| 1777891800 | 22.22° C | 23% | 1005.5 hPa | - | - | - | - |
| 1777890900 | 22.22° C | 24% | 1005.6 hPa | - | - | - | - |
| 1777890000 | 22.22° C | 26% | 1005.6 hPa | - | - | - | - |
| 1777889100 | 22.22° C | 25% | 1005.7 hPa | - | - | - | - |
| 1777888200 | 22.22° C | 24% | 1005.8 hPa | - | - | - | - |
| 1777887300 | 21.67° C | 25% | 1005.9 hPa | - | - | - | - |
| 1777886400 | 21.67° C | 24% | 1006.2 hPa | - | - | - | - |
| 1777885500 | 22.22° C | 25% | 1006.2 hPa | - | - | - | - |
| 1777884600 | 21.67° C | 24% | 1006.1 hPa | - | - | - | - |
| 1777883700 | 22.22° C | 24% | 1006.2 hPa | - | - | - | - |
| 1777882800 | 22.78° C | 23% | 1006.2 hPa | - | - | - | - |
| 1777881900 | 22.78° C | 24% | 1006.3 hPa | - | - | - | - |
| 1777880999 | 23.33° C | 24% | 1006.1 hPa | - | - | - | - |
| 1777880099 | 23.89° C | 22% | 1006.1 hPa | - | - | - | - |
| 1777879199 | 25.56° C | 22% | 1005.9 hPa | - | - | - | - |
| 1777878299 | 27.22° C | 21% | 1006 hPa | - | - | - | - |
| 1777877399 | 27.78° C | 19% | 1005.9 hPa | - | - | - | - |
| 1777876499 | 27.22° C | 21% | 1005.8 hPa | - | - | - | - |
* Rain since midnight (hover to see other rain measurements)
** Current wind speed in m/s (hover to see current wind gust speed)